Home > Weather > Islamabad > Past weeks

Flag for Pakistan Past Weather in Islamabad, Pakistan — Yesterday and Last 2 Weeks

Now
106 °F

Scattered clouds.


Feels Like: 119 °F
Forecast: 84 / 101 °F
Wind: 18 mph from Southwest

Location: Islamabad Airport

Current Time: Jul 1, 2016 at 4:42:38 PM

Latest Report: Jul 1, 2016 at 4:00 PM


Visibility: 3 mi

Pressure: 29.36 "Hg (27.64 "Hg at 554m altitude)

Humidity: 36%

Dew Point: 73 °F

Location of IslamabadLocation

Past Weather in Islamabad — Graph

°F

Islamabad Temperature Yesterday

Maximum temperature yesterday: 104 °F (at 2:00 PM)
Minimum temperature yesterday: 88 °F (at 3:00 AM)
Average temperature yesterday: 95 °F

High & Low Weather Summary for the Past Weeks

 TemperatureHumidityPressure
High106 °F (Jul 1, 2:00 PM)89% (Jun 21, 4:00 AM)29.77 "Hg (Jun 21, 4:00 AM)
Low73 °F (Jun 21, 4:00 AM)33% (Jun 24, 6:00 PM)29.39 "Hg (Jul 1, 3:30 PM)
Average91 °F55%29.63 "Hg
* Reported Jun 16 3:00 PM — Jul 1 3:30 PM, Islamabad, Weather by CustomWeather, © 2016

Note: Actual official high and low records may vary slightly from our data, if they occured in-between our weather recording intervals... More about our weather records

Advertising

Islamabad Weather History for the Previous 24 Hours

Scroll right to see more
 ConditionsComfort  
Time TempWeatherWind HumidityBarometerVisibility
3:30 PM
Fri, Jul 1
106 °FScattered clouds.18 mph36%29.39 "Hg3 mi
2:30 PM106 °FScattered clouds.18 mph38%29.42 "Hg3 mi
2:00 PM106 °FScattered clouds.18 mph38%29.42 "Hg3 mi
1:30 PM104 °FScattered clouds.14 mph43%29.45 "Hg3 mi
1:00 PM104 °FScattered clouds.14 mph43%29.45 "Hg3 mi
12:30 PM104 °FScattered clouds.12 mph43%29.47 "Hg3 mi
12:00 PM104 °FScattered clouds.12 mph43%29.47 "Hg3 mi
11:30 AM102 °FHaze.12 mph45%29.47 "Hg3 mi
11:00 AM102 °FHaze.12 mph45%29.47 "Hg3 mi
10:30 AM100 °FHaze.14 mph45%29.50 "Hg3 mi
10:00 AM100 °FHaze.14 mph45%29.50 "Hg3 mi
9:00 AM97 °FHaze.14 mph53%29.50 "Hg3 mi
8:30 AM95 °FHaze.14 mph56%29.50 "Hg3 mi
4:00 AM91 °FPassing clouds.5 mph56%29.50 "Hg4 mi
3:00 AM91 °FPassing clouds.5 mph56%29.50 "Hg4 mi
2:00 AM91 °FPassing clouds.7 mph56%29.50 "Hg4 mi
1:00 AM93 °FPassing clouds.5 mph53%29.50 "Hg4 mi
12:00 AM93 °FPassing clouds.7 mph53%29.50 "Hg4 mi
11:30 PM
Thu, Jun 30
97 °FPassing clouds.7 mph47%29.50 "Hg4 mi
7:00 PM102 °FPassing clouds.9 mph35%29.47 "Hg5 mi
5:00 PM104 °FPassing clouds.14 mph33%29.47 "Hg5 mi
4:00 PM104 °FPassing clouds.14 mph35%29.50 "Hg5 mi
Weather by CustomWeather, © 2016

See weather overviewHow to use our weather pages